Lid_Strength_Index
3 2 2 2 3 3 5 6 5 3 3 2 2 2 2 2 3 3 1 -2 -3 -2 -2 -2 -1 -1 -1 -1 -1 -0 0 0 0 0 1 1 1 1 1 1 1 1 1
2 2 3 3 3 4 5 5 5 4 4 3 3 2 2 3 4 3 3 2 -2 -2 -1 -1 -1 -1 -1 -1 -0 0 1 1 1 1 1 1 1 1 1 1 1 1 1
2 3 3 3 4 4 5 5 5 5 5 4 4 2 3 4 5 5 5 5 4 -0 -1 -0 0 0 0 0 0 1 1 1 1 1 1 1 1 1 1 1 2 1 2
2 3 3 3 3 4 4 4 5 6 6 6 5 4 4 5 6 6 6 6 6 6 3 1 1 2 2 1 1 1 1 2 2 2 2 2 2 2 2 2 2 2 2
2 2 3 2 3 4 4 4 5 6 7 7 6 6 6 6 6 6 7 6 6 7 7 4 3 3 3 3 2 2 2 2 2 2 2 2 2 2 2 2 2 2 2
2 2 2 3 3 4 4 4 6 6 7 7 5 6 7 7 7 7 8 6 8 10 10 11 10 8 5 4 4 3 3 2 2 2 2 2 2 2 2 2 2 2 2
1 2 3 3 3 3 4 4 6 6 7 7 7 7 7 8 9 9 10 8 9 11 11 12 12 12 11 6 5 4 3 3 2 2 2 2 2 2 2 2 2 2 2
2 2 3 3 3 3 4 4 5 6 7 7 7 8 9 7 7 8 10 9 11 11 11 12 12 12 12 11 8 6 5 3 3 2 2 2 2 3 2 2 2 2 2
2 2 3 3 3 3 4 4 5 5 7 7 7 7 9 9 8 7 9 10 11 11 12 12 12 12 12 11 10 9 6 5 4 3 2 2 3 3 3 3 3 3 2
2 2 2 3 3 4 3 4 4 5 6 7 6 6 7 8 9 9 8 11 11 11 12 12 12 12 12 12 10 8 7 6 5 4 3 3 3 3 3 4 3 3 3
2 2 2 3 3 4 4 4 4 5 6 6 6 8 9 9 8 9 10 9 12 12 11 12 12 13 12 11 11 10 7 6 5 4 3 3 4 4 4 4 4 3 3
3 2 3 3 3 4 4 4 4 5 5 6 6 7 8 9 9 9 10 10 12 12 12 12 12 13 12 11 9 9 8 7 6 5 4 4 5 5 5 4 4 4 3
4 3 3 3 3 3 4 4 5 5 5 6 6 7 7 8 9 9 10 11 12 13 12 12 12 13 11 12 11 10 9 8 7 6 5 5 6 6 6 6 5 4 4
3 2 3 3 3 3 4 5 5 6 6 6 6 7 7 8 10 10 10 12 14 14 14 13 13 13 13 12 11 10 12 9 9 7 7 7 7 7 7 6 6 5 5
3 3 3 3 4 4 4 5 6 6 6 7 7 8 9 9 10 11 11 12 12 14 14 14 15 14 13 13 12 14 13 11 10 9 8 9 8 8 8 7 7 6 6
3 3 3 3 3 4 4 5 6 7 7 8 8 9 10 11 11 12 12 12 13 13 14 15 15 14 14 12 12 14 13 12 12 10 9 9 9 8 8 8 8 7 6
3 3 4 4 4 4 4 5 5 6 8 8 10 10 10 11 12 12 13 13 14 14 14 15 15 15 15 15 14 15 14 15 15 11 10 10 10 9 9 8 8 7 7
3 4 4 5 5 4 4 4 5 6 7 8 9 11 11 11 12 13 13 13 14 14 15 15 15 15 15 15 15 16 15 14 14 12 11 11 10 10 9 9 8 8 8
3 4 4 5 5 5 5 4 4 5 6 7 8 10 10 12 13 13 13 14 14 14 15 15 16 15 15 15 15 15 16 14 14 13 13 12 12 10 10 10 9 9 9
3 4 4 4 4 5 5 5 5 5 6 7 7 8 9 11 11 13 13 14 14 15 15 15 16 16 15 14 14 15 15 15 15 14 14 14 12 12 11 10 10 10 9
3 3 3 3 3 4 4 5 6 6 5 6 7 8 9 10 10 10 12 13 14 14 14 14 15 16 17 16 15 15 16 15 15 15 15 16 16 15 15 13 12 10 9
3 3 3 3 4 4 5 6 5 5 5 5 6 8 9 11 11 10 10 11 12 14 14 14 14 16 16 15 15 16 16 17 16 15 17 17 16 16 15 15 11 10 9
6 3 3 3 4 4 6 7 7 5 5 6 6 7 10 11 11 11 10 11 11 11 12 14 15 15 16 15 15 16 16 16 17 17 16 19 16 16 15 14 12 10 10
8 8 6 5 3 3 5 6 7 5 5 5 6 7 9 10 10 11 11 12 13 12 12 13 13 14 15 14 15 15 15 15 16 16 15 19 17 17 16 15 11 11 10
10 8 8 8 7 6 6 6 6 5 5 5 7 8 9 10 11 10 12 13 13 13 12 13 13 12 13 12 13 15 16 17 19 18 16 16 19 17 19 16 14 11 11
9 9 9 9 8 8 8 7 7 5 6 7 11 10 9 10 10 10 12 14 14 15 14 14 14 13 13 13 12 14 15 17 18 18 16 17 19 18 20 18 16 14 14